[[[{"header":{"parameterUnit":"kt","parameterCategory":2,"dx":1,"dy":1,"la1":30.253999710083008,"la2":30.299108505249023,"lo1":-89.0895004272461,"lo2":-89.04439544677734,"nx":28,"ny":28,"refTime":"2022-09-27T15:00:00:Z","depth":0,"parameterNumber":1,"parameterNumberName":"U-component_of_WINDS"},"data":[-7.562,-7.5743,-7.5726,-7.5856,-7.5862,-7.5948,-7.5973,-7.6004,-7.6023,-7.6122,-7.6175,-7.6169,-7.618,-7.6239,-7.6295,-7.629,-7.6316,-7.6372,-7.6357,-7.6124,-7.6091,-7.6059,-7.6029,-7.6377,-7.6378,-7.6602,-7.6604,-7.6605,-7.545,-7.5458,-7.5522,-7.5573,-7.5627,-7.5563,-7.5597,-7.5647,-7.5725,-7.5749,-7.5801,-7.5886,-7.5951,-7.5943,-7.6001,-7.6057,-7.6029,-7.6074,-7.607,-7.6073,-7.5823,-7.5792,-7.6095,-7.6095,-7.6095,-7.6095,-7.6095,-7.6094,-7.5135,-7.5209,-7.523,-7.5299,-7.5319,-7.5353,-7.542,-7.5411,-7.5472,-7.5533,-7.5498,-7.5586,-7.5606,-7.5668,-7.5683,-7.575,-7.5698,-7.574,-7.5751,-7.5763,-7.5779,-7.546,-7.5759,-7.5758,-7.5757,-7.5756,-7.5756,0,-7.49,-7.4881,-7.4941,-7.4996,-7.5046,-7.5087,-7.5121,-7.5161,-7.5112,-7.5165,-7.524,-7.528,-7.5358,-7.5425,-7.5476,-7.5483,-7.5422,-7.5413,-7.5442,-7.5462,-7.5472,-7.5469,-7.5063,-7.5405,-7.5401,-7.5399,-7.5398,-7.5396,-7.4582,-7.4671,-7.4683,-7.4728,-7.4742,-7.4815,-7.4854,-7.4804,-7.4848,-7.4882,-7.4949,-7.5016,-7.5067,-7.5189,-7.5176,-7.5234,-7.5205,-7.5337,-7.5213,-7.5227,-7.5208,-7.5204,-7.5213,-7.5363,-7.5368,-7.5371,-7.5374,0,-7.4405,-7.4376,-7.4506,-7.4509,-7.4513,-7.4607,-7.4609,-7.468,-7.4663,-7.4758,-7.4777,-7.4751,-7.4824,-7.479,-7.4867,-7.4846,-7.5,-7.4969,-7.4993,-7.4985,-7.5102,-7.5092,-7.5483,-7.5531,-7.5168,-7.5172,-7.5175,0,-7.4124,-7.4241,-7.419,-7.4268,-7.4395,-7.4342,-7.447,-7.4468,-7.4484,-7.4559,-7.4483,-7.4554,-7.4498,-7.4564,-7.4535,-7.4654,-7.4668,-7.466,-7.4651,-7.4668,-7.4669,-7.4691,-7.4675,-7.4625,-7.4623,-7.4622,-7.462,0,-7.3851,-7.3961,-7.4086,-7.4106,-7.4121,-7.418,-7.4189,-7.4207,-7.4246,-7.4291,-7.4315,-7.4371,-7.4402,-7.4446,-7.4407,-7.4324,-7.4552,-7.443,-7.4544,-7.4545,-7.4597,-7.4595,-7.4948,-7.4618,-7.4617,-7.4616,-7.4616,0,-7.3619,-7.3667,-7.3852,-7.3862,-7.3893,-7.3975,-7.4027,-7.4089,-7.4113,-7.41,-7.4134,-7.408,-7.4181,-7.4062,-7.42,-7.4103,-7.4138,-7.4139,-7.4146,-7.4155,-7.4024,-7.423,-7.4568,-7.4603,-7.416,-7.4156,-7.4153,0,-7.3316,-7.3495,-7.3451,-7.3628,-7.3706,-7.3615,-7.3705,-7.3729,-7.3719,-7.3782,-7.3769,-7.3843,-7.3747,-7.3765,-7.3838,-7.3828,-7.3954,-7.381,-7.3903,-7.3907,-7.3901,-7.4211,-7.4271,-7.4497,-7.4104,-7.4109,-7.4113,0,-7.3078,-7.3095,-7.313,-7.3151,-7.3174,-7.3239,-7.3342,-7.3403,-7.3448,-7.3483,-7.3568,-7.3669,-7.3601,-7.3632,-7.3593,-7.3671,-7.3867,-7.3588,-7.3588,-7.364,-7.4076,-7.4132,-7.4171,-7.3824,-7.383,-7.3834,-7.4074,0,-7.2736,-7.2822,-7.2914,-7.2963,-7.3007,-7.3115,-7.3079,-7.313,-7.3088,-7.3075,-7.3199,-7.3209,-7.3271,-7.3305,-7.3265,-7.3454,-7.3417,-7.3344,-7.3228,-7.3431,-7.3509,-7.3541,-7.3114,-7.311,-7.3107,-7.3105,0,0,-7.2454,-7.2576,-7.2524,-7.2623,-7.2657,-7.2562,-7.2681,-7.2703,-7.275,-7.2776,-7.271,-7.2856,-7.2867,-7.3022,-7.3082,-7.3107,-7.3138,-7.3068,-7.3334,-7.336,-7.3384,-7.3468,-7.3501,-7.3099,-7.3098,-7.3097,-7.3096,0,-7.2323,-7.2337,-7.2456,-7.2476,-7.2505,-7.2484,-7.2513,-7.2525,-7.2521,-7.2642,-7.2562,-7.2632,-7.275,-7.2773,-7.2801,-7.3048,-7.2984,-7.3069,-7.3216,-7.3304,-7.3334,-7.336,-7.3449,-7.3482,-7.3088,-7.3089,-7.3089,0,-7.2082,-7.2091,-7.2144,-7.2217,-7.2235,-7.2317,-7.2186,-7.2278,-7.2338,-7.223,-7.2352,-7.2353,-7.238,-7.2531,-7.2597,-7.254,-7.2847,-7.2743,-7.2761,-7.2769,-7.2853,-7.2889,-7.2921,-7.25,-7.2498,-7.2496,0,0,-7.1974,-7.2052,-7.2046,-7.2186,-7.2203,-7.2175,-7.2215,-7.2177,-7.2205,-7.2216,-7.2216,-7.2245,-7.2312,-7.2358,-7.242,-7.259,-7.2592,-7.2672,-7.27,-7.2723,-7.2742,-7.2833,-7.2868,-7.2489,-7.2489,-7.2488,0,0,-7.1921,-7.192,-7.1873,-7.2032,-7.206,-7.2063,-7.215,-7.2093,-7.2145,-7.2128,-7.207,-7.2075,-7.2215,-7.2219,-7.2128,-7.2378,-7.2263,-7.2284,-7.237,-7.2405,-7.2432,-7.2429,-7.1995,0,0,0,0,0,-7.1768,-7.1919,-7.1877,-7.1898,-7.1991,-7.2086,-7.2098,-7.2053,-7.1972,-7.2043,-7.2034,-7.1962,-7.2158,-7.2075,-7.2097,-7.22,-7.2396,-7.2413,-7.2428,-7.2579,-7.2616,-7.2646,0,0,0,0,0,0,-7.1776,-7.1803,-7.1873,-7.1883,-7.1903,-7.208,-7.1934,-7.1926,-7.1964,-7.1949,-7.1966,-7.1963,-7.1926,-7.2061,-7.2081,-7.218,-7.1988,-7.2403,-7.2417,-7.2429,-7.2591,-7.2621,-7.2647,0,0,0,0,0,-7.1782,-7.1803,-7.1963,-7.188,-7.1898,-7.1874,-7.1928,-7.192,-7.1949,-7.1935,-7.193,-7.1912,-7.193,-7.1944,-7.2073,-7.2172,-7.1973,-7.1981,-7.2412,-7.2423,-7.2433,-7.2606,0,0,0,0,0,0,-7.1787,-7.1797,-7.1966,-7.1969,-7.182,-7.1863,-7.1869,-7.1916,-7.1932,-7.1928,-7.1877,-7.1865,-7.1935,-7.1945,-7.1956,-7.2172,-7.1962,-7.197,-7.1975,-7.242,-7.2429,-7.2436,0,0,0,0,0,0,-7.1785,-7.1801,-7.1967,-7.1894,-7.1889,-7.1854,-7.1859,-7.1961,-7.1933,-7.1872,-7.1863,-7.1872,-7.1918,-7.1946,-7.1954,-7.2116,-7.1953,-7.196,-7.1966,-7.1969,-7.2427,-7.2434,0,0,0,0,0,0,-7.1791,-7.1804,-7.1893,-7.1889,-7.1884,-7.1921,-7.1943,-7.204,-7.1871,-7.1873,-7.1854,-7.1847,-7.1922,-7.1929,-7.1954,-7.2113,-7.2115,-7.1953,-7.1958,-7.1962,-7.1964,0,0,0,0,0,0,0,-7.1795,-7.1717,-7.1944,-7.1884,-7.188,-7.2003,-7.2004,-7.2005,-7.1869,-7.1863,-7.1856,-7.185,-7.191,-7.1918,-7.1926,-7.211,0,0,-7.1952,-7.1956,0,0,0,0,0,0,0,0,-7.1711,-7.1716,-7.1944,-7.1945,-7.1946,-7.2003,-7.2004,-7.2005,-7.1868,-7.1863,-7.1857,-7.1852,-7.1912,-7.1919,-7.1925,0,0,0,0,0,0,0,0,0,0,0,0,0,0,0,-7.1944,-7.1945,0,-7.2003,-7.2004,-7.2005,-7.1867,-7.1863,-7.1859,-7.1854,-7.1914,-7.1919,-7.1925,0,0,0,0,0,0,0,0,0,0,0,0,0,0,0,0,0,0,0,0,0,0,0,0,0,0,0,0,0,0,0,0,0,0,0,0,0,0,0,0,0,0,0,0,0,0,0,0,0,0,0,0,0,0,0,0,0,0,0,0,0,0,0,0,0,0,0,0,0]}],[{"header":{"parameterUnit":"kt","parameterCategory":2,"dx":1,"dy":1,"la1":30.253999710083008,"la2":30.299108505249023,"lo1":-89.0895004272461,"lo2":-89.04439544677734,"nx":28,"ny":28,"refTime":"2022-09-27T15:00:00:Z","depth":0,"parameterNumber":2,"parameterNumberName":"V-component_of_WINDS"},"data":[-18.8733,-18.8894,-18.8881,-18.9057,-18.9074,-18.919,-18.9226,-18.927,-18.9301,-18.9434,-18.9507,-18.9504,-18.9524,-18.9603,-18.9678,-18.9674,-18.9706,-18.9777,-18.9759,-18.9464,-18.9422,-18.9382,-18.9344,-18.9785,-18.9785,-19.0067,-19.007,-19.0072,-18.8523,-18.8543,-18.8632,-18.8708,-18.8783,-18.8708,-18.8759,-18.8826,-18.893,-18.8967,-18.9038,-18.9152,-18.9237,-18.9231,-18.9309,-18.938,-18.9346,-18.9403,-18.9396,-18.94,-18.9085,-18.9045,-18.9429,-18.9429,-18.9429,-18.9429,-18.9429,-18.9429,-18.8137,-18.8234,-18.8271,-18.8367,-18.84,-18.8449,-18.8537,-18.8533,-18.8616,-18.8698,-18.8659,-18.8774,-18.8804,-18.8887,-18.8908,-18.8995,-18.8928,-18.8982,-18.8995,-18.901,-18.903,-18.8627,-18.9006,-18.9005,-18.9004,-18.9003,-18.9002,0,-18.7849,-18.783,-18.7913,-18.7993,-18.8061,-18.8119,-18.8168,-18.8221,-18.8167,-18.8237,-18.8336,-18.8389,-18.8492,-18.858,-18.8647,-18.8657,-18.8579,-18.8568,-18.8605,-18.8627,-18.864,-18.8635,-18.8122,-18.8556,-18.8552,-18.8549,-18.8547,-18.8546,-18.7458,-18.7572,-18.7601,-18.7661,-18.7684,-18.7781,-18.7834,-18.7778,-18.7836,-18.7885,-18.7971,-18.8059,-18.8126,-18.8282,-18.8267,-18.8342,-18.8304,-18.8473,-18.8314,-18.8332,-18.8307,-18.8301,-18.8312,-18.8504,-18.8509,-18.8514,-18.8517,0,-18.724,-18.7212,-18.7382,-18.7396,-18.7403,-18.7524,-18.7534,-18.7626,-18.7608,-18.773,-18.7755,-18.7726,-18.7821,-18.7778,-18.7876,-18.785,-18.8045,-18.8006,-18.8036,-18.8025,-18.8172,-18.8159,-18.8654,-18.8716,-18.8259,-18.8263,-18.8267,0,-18.6894,-18.7045,-18.6994,-18.7093,-18.7258,-18.7197,-18.7361,-18.7361,-18.7386,-18.7481,-18.7388,-18.7479,-18.7409,-18.7493,-18.7455,-18.7606,-18.7624,-18.7613,-18.7601,-18.7622,-18.7623,-18.7648,-18.7627,-18.7568,-18.7566,-18.7564,-18.7562,0,-18.6556,-18.6702,-18.6864,-18.6892,-18.692,-18.6996,-18.701,-18.7036,-18.7087,-18.7145,-18.7177,-18.7248,-18.7287,-18.7342,-18.7293,-18.7188,-18.7476,-18.732,-18.7464,-18.7466,-18.7529,-18.7526,-18.7977,-18.7558,-18.7558,-18.7557,-18.7556,0,-18.627,-18.6336,-18.6575,-18.6595,-18.6635,-18.674,-18.6808,-18.6888,-18.6921,-18.6904,-18.6949,-18.6879,-18.7007,-18.6856,-18.7031,-18.6908,-18.6951,-18.6951,-18.696,-18.6968,-18.68,-18.706,-18.7494,-18.7538,-18.6977,-18.6973,-18.6968,0,-18.5891,-18.6123,-18.6072,-18.6299,-18.6399,-18.6288,-18.6403,-18.6435,-18.6422,-18.6503,-18.6486,-18.6578,-18.6456,-18.6478,-18.657,-18.6556,-18.6716,-18.6533,-18.6646,-18.6651,-18.6643,-18.7042,-18.7117,-18.7404,-18.6906,-18.6912,-18.6917,0,-18.5592,-18.5625,-18.5669,-18.5698,-18.5731,-18.5813,-18.5945,-18.6023,-18.608,-18.6124,-18.6231,-18.6357,-18.627,-18.6307,-18.6256,-18.6354,-18.6606,-18.6246,-18.6246,-18.6313,-18.687,-18.6942,-18.699,-18.6549,-18.6557,-18.6563,-18.6868,0,-18.5171,-18.5281,-18.5398,-18.5463,-18.552,-18.5657,-18.5613,-18.5678,-18.5625,-18.5607,-18.5763,-18.5773,-18.5847,-18.5889,-18.5836,-18.6075,-18.6028,-18.5933,-18.5781,-18.6043,-18.6142,-18.6183,-18.5637,-18.5632,-18.5628,-18.5625,0,0,-18.4814,-18.4971,-18.4908,-18.5034,-18.5078,-18.4958,-18.5109,-18.5136,-18.5194,-18.5225,-18.5141,-18.532,-18.533,-18.5523,-18.5601,-18.5631,-18.5669,-18.5578,-18.5918,-18.5951,-18.5982,-18.6089,-18.6132,-18.5618,-18.5616,-18.5615,-18.5614,0,-18.4651,-18.4671,-18.4822,-18.4849,-18.4886,-18.486,-18.4896,-18.4909,-18.4904,-18.5056,-18.4951,-18.5037,-18.518,-18.5206,-18.5238,-18.5554,-18.5468,-18.558,-18.5768,-18.588,-18.5918,-18.5952,-18.6065,-18.6107,-18.5604,-18.5605,-18.5605,0,-18.4348,-18.4361,-18.4429,-18.4522,-18.4544,-18.4648,-18.448,-18.4596,-18.4671,-18.4527,-18.4679,-18.4677,-18.4706,-18.4894,-18.4976,-18.4901,-18.5289,-18.5156,-18.518,-18.5187,-18.5293,-18.5339,-18.538,-18.4839,-18.4836,-18.4834,0,0,-18.4212,-18.4314,-18.4306,-18.4483,-18.4505,-18.4467,-18.4516,-18.4467,-18.4499,-18.4511,-18.4507,-18.4538,-18.462,-18.4675,-18.4748,-18.4961,-18.4961,-18.5064,-18.51,-18.513,-18.5153,-18.5267,-18.5313,-18.4825,-18.4825,-18.4825,0,0,-18.4145,-18.4145,-18.4086,-18.4287,-18.4323,-18.4323,-18.4432,-18.4358,-18.442,-18.4398,-18.4317,-18.4322,-18.4496,-18.4497,-18.438,-18.4693,-18.4543,-18.457,-18.4685,-18.473,-18.4766,-18.4761,-18.4204,0,0,0,0,0,-18.3954,-18.4145,-18.4092,-18.4119,-18.4234,-18.4353,-18.4367,-18.4307,-18.4203,-18.4292,-18.4276,-18.4179,-18.4417,-18.4312,-18.4337,-18.4468,-18.4706,-18.4727,-18.4747,-18.4945,-18.4993,-18.5033,0,0,0,0,0,0,-18.3964,-18.3997,-18.4087,-18.4097,-18.4122,-18.4346,-18.4158,-18.4146,-18.4192,-18.4172,-18.4186,-18.418,-18.4128,-18.4294,-18.4318,-18.4444,-18.4195,-18.4714,-18.4732,-18.4748,-18.4962,-18.5,-18.5034,0,0,0,0,0,-18.3972,-18.3998,-18.4199,-18.4093,-18.4115,-18.4081,-18.415,-18.4139,-18.4173,-18.4148,-18.4139,-18.4123,-18.4133,-18.4149,-18.4308,-18.4435,-18.4178,-18.4187,-18.4726,-18.474,-18.4753,-18.4981,0,0,0,0,0,0,-18.3978,-18.3988,-18.4201,-18.4206,-18.4017,-18.4067,-18.4073,-18.4133,-18.4144,-18.4138,-18.408,-18.4065,-18.4139,-18.415,-18.4163,-18.4435,-18.4164,-18.4174,-18.4179,-18.4737,-18.4748,-18.4758,0,0,0,0,0,0,-18.3973,-18.3993,-18.4203,-18.411,-18.4103,-18.4055,-18.406,-18.4184,-18.4146,-18.4075,-18.4062,-18.4073,-18.4118,-18.4153,-18.4162,-18.4359,-18.4153,-18.4162,-18.4169,-18.4173,-18.4746,-18.4754,0,0,0,0,0,0,-18.398,-18.3997,-18.4108,-18.4103,-18.4096,-18.4138,-18.4162,-18.4282,-18.407,-18.4076,-18.4049,-18.4039,-18.4123,-18.4131,-18.4162,-18.4355,-18.4358,-18.4154,-18.416,-18.4164,-18.4167,0,0,0,0,0,0,0,-18.3986,-18.389,-18.4177,-18.4097,-18.4091,-18.4245,-18.4246,-18.4247,-18.4068,-18.4059,-18.4051,-18.4043,-18.4102,-18.4112,-18.4122,-18.4352,0,0,-18.4153,-18.4157,0,0,0,0,0,0,0,0,-18.3882,-18.3888,-18.4177,-18.4178,-18.4179,-18.4245,-18.4246,-18.4247,-18.4066,-18.406,-18.4053,-18.4046,-18.4105,-18.4113,-18.4121,0,0,0,0,0,0,0,0,0,0,0,0,0,0,0,-18.4177,-18.4178,0,-18.4245,-18.4246,-18.4246,-18.4065,-18.406,-18.4054,-18.4049,-18.4107,-18.4113,-18.412,0,0,0,0,0,0,0,0,0,0,0,0,0,0,0,0,0,0,0,0,0,0,0,0,0,0,0,0,0,0,0,0,0,0,0,0,0,0,0,0,0,0,0,0,0,0,0,0,0,0,0,0,0,0,0,0,0,0,0,0,0,0,0,0,0,0,0,0,0]}]]]